Location: ??? ???
(33.4974°N, 35.4618°E)
Time: 18:50:26
(UTC+00:00)

Cosmos 1992 Rocket - Pass Details

Date: 29 October 2020
Orbit: 759 x 766 km, 74.0° (Epoch: 30 November)

Event Time Altitude Azimuth Distance (km) Brightness Sun altitude
Rises 15:47:58 0° 197° (SSW) 3,203 7.6 -12.9°
Reaches altitude 10° 15:50:19 10° 197° (SSW) 2,281 6.8 -13.4°
Maximum altitude 15:55:30 85° 287° (WNW) 766 4.0 -14.5°
Drops below altitude 10° 16:00:43 10° 16° (NNE) 2,292 6.2 -15.5°
Sets 16:03:05 0° 17° (NNE) 3,221 7.0 -16.0°
